GAOFEN 1-02

Satellite information

Favourite Embed

Satellite Type and Status

PAYLOADIN ORBIT

Key statistics

Satellite GAOFEN 1-02 at a glance.

Uptime

2718

Days in orbit

Revolutions

≈ 14.8

Per day

Orbit

SSO

Sun Synchronous Orbit

Inclination

97.8

Latest

Satellite identification and parameters

Extended collection of information and parameters for GAOFEN 1-02.

Object identification

Identified? True

Debris? False

Object name: GAOFEN 1-02

International designator: 2018-031A

Object number (NORAD): 43259

Object ID (CCSDS): 43259

Country: PEOPLES REPUBLIC OF CHINA (PRC)

Current information (Y/N): Y

RCS size: LARGE

Orbital parameters

Period: 97.52 minutes

Inclination: 97.7643 deg

SMA: 7018.139 km

Apoapsis: 643.658 km

Periapsis: 636.35 km

RAAN: 308.8823 deg

Eccentricy: 0.00052065

Argument of periapsis: 169.2548 deg

Mean anomaly: 190.8774 deg

Mean motion: 14.76623683 rev/day

Mean motion (dot): 0.00001124 rev/day2

B* drag term: 0.0001677982 1/REarth

Two-line elements (TLE)

Creation date: Sept. 8, 2025, 3:16 a.m.

Reference frame: TEME

Reference center: EARTH

Epoch: Sept. 7, 2025, 11:08 p.m. UTC

TLE line 0: 0 GAOFEN 1-02

TLE line 1: 1 43259U 18031A 25250.96436486 .00001124 00000-0 16780-3 0 9999

TLE line 2: 2 43259 97.7643 308.8823 0005206 169.2548 190.8774 14.76623683401053

Live tracking on map

Real-time ground track for satellite GAOFEN 1-02.

In-orbit conjunctions

There are no conjunctions computed for GAOFEN 1-02, at the moment. Check back to stay up to date, as we update our databases every day.

Go to all conjunctions

Associated space launch

Gaofen is a series of Chinese civilian Earth observation satellites. These three satellites are to be operated together with the Gaofen-1 satellite, which was launched in 2013.

GAOFEN 1-02 was lifted into orbit during the mission ‘Long March 4C | Gaofen 1-02, 1-03 & 1-04’, on board a Long March 4C space rocket.

The launch took place on March 31, 2018, 3:22 a.m. from Launch Complex 9.

For more information about the launch, click the button.

Launch to space Long March 4C | Gaofen 1-02, 1-03 & 1-04
Long March 4C | Gaofen 1-02, 1-03 & 1-04

Agency: N/A

Status: Launch Successful

Launch date: March 31, 2018, 3:22 a.m. UTC

Rocket: Long March 4C

Launch pad: Launch Complex 9

Location: Taiyuan Satellite Launch Center, People's Republic of China

...

Latest news about this satellite

There are no fresh news available about this satellite. Check back as we update our databases every day.


Newsletter sign-up

Weekly statistics, charts and insights to help you stay on top of the space industry.